Date String (YYYY-MM-DD hh:mm:ss) UTC,Instrument flags,absolute air pressure of the measurement (hPa),sample flow rate (lpm),inlet stack bypass flow (lpm),air temperature of the measurement (°C),ambient temperature measured by the external sensor (°C),aerosol sample conditioner tube jacket temperature (°C),OPC LED temperature (°C),internal box temperature (°C),relative humidity of the measurement (%),span deviation,mass concentration of particles derived from Lorenz-Mie calculation of OPC scattering (μg/m³),mass concentration of particles derived from Lorenz-Mie calculation of OPC scattering (μg/m³),mass concentration of particles derived from Lorenz-Mie calculation of OPC scattering (μg/m³)
DateTimeUTC,F1_M11,P_M11,Q1_M11,Q2_M11,T1_M11,T2_M11,T3_M11,T4_M11,T5_M11,U1_M11,ZSPAN_M11,X2_M11,X0_M11,X1_M11
2024-05-24 09:00:00,SystemResetWarning,0824.4,5.00,000.00,026.6,025.6,000.0,035.1,028.3,009.6,0000.0,0001.57,0006.85,0000.74
2024-05-24 09:01:00,SystemResetWarning,0824.4,5.00,000.00,026.6,025.7,000.0,035.1,028.3,009.8,0000.0,0001.55,0006.87,0000.73
2024-05-24 09:02:00,SystemResetWarning,0824.5,5.00,000.00,026.6,025.7,000.0,035.1,028.3,010.0,0000.0,0001.58,0007.25,0000.73
2024-05-24 09:03:00,SystemResetWarning,0824.3,5.00,000.00,026.6,025.7,000.0,035.1,028.4,010.1,0000.0,0001.56,0007.34,0000.73
2024-05-24 09:04:00,SystemResetWarning,0824.3,5.00,000.00,026.6,025.7,000.0,035.1,028.4,010.1,0000.0,0001.51,0006.97,0000.73
2024-05-24 09:05:00,SystemResetWarning,0824.4,5.01,000.00,026.6,025.7,000.0,035.1,028.3,010.2,0000.0,0001.51,0006.90,0000.72
2024-05-24 09:06:00,SystemResetWarning,0824.4,5.00,000.00,026.5,025.6,000.0,035.1,028.3,010.2,0000.0,0001.54,0006.40,0000.71
2024-05-24 09:07:00,SystemResetWarning,0824.5,5.00,000.00,026.5,025.6,000.0,035.1,028.3,010.3,0000.0,0001.55,0007.51,0000.72
2024-05-24 09:08:00,SystemResetWarning,0824.7,5.01,000.00,026.5,025.6,000.0,035.1,028.3,010.3,0000.0,0001.62,0007.70,0000.71
2024-05-24 09:09:00,SystemResetWarning,0824.7,5.00,000.00,026.5,025.6,000.0,035.1,028.3,010.3,0000.0,0001.70,0008.98,0000.71
2024-05-24 09:10:00,SystemResetWarning,0824.7,5.00,000.00,026.5,025.6,000.0,035.1,028.3,010.1,0000.0,0001.77,0010.15,0000.70
2024-05-24 09:11:00,SystemResetWarning,0824.7,5.00,000.00,026.5,025.6,000.0,035.0,028.3,010.2,0000.0,0001.82,0010.70,0000.71
2024-05-24 09:12:00,SystemResetWarning,0824.7,5.00,000.00,026.5,025.6,000.0,035.0,028.3,010.2,0000.0,0001.77,0010.65,0000.72
2024-05-24 09:13:00,SystemResetWarning,0824.8,4.99,000.00,026.5,025.6,000.0,035.0,028.3,010.3,0000.0,0001.76,0010.78,0000.72
2024-05-24 09:14:00,SystemResetWarning,0824.7,5.00,000.00,026.5,025.6,000.0,035.0,028.3,010.4,0000.0,0001.78,0010.96,0000.72
2024-05-24 09:15:00,SystemResetWarning,0824.7,5.00,000.00,026.5,025.6,000.0,035.0,028.3,010.4,0000.0,0001.76,0011.48,0000.72
2024-05-24 09:16:00,SystemResetWarning,0824.7,4.99,000.00,026.5,025.6,000.0,035.0,028.3,010.4,0000.0,0001.73,0011.47,0000.73
2024-05-24 09:17:00,SystemResetWarning,0824.6,5.01,000.00,026.5,025.6,000.0,035.0,028.2,010.3,0000.0,0001.68,0011.31,0000.74
2024-05-24 09:18:00,SystemResetWarning,0824.7,5.01,000.00,026.5,025.6,000.0,034.9,028.3,010.3,0000.0,0001.71,0010.57,0000.74
2024-05-24 09:19:00,SystemResetWarning,0824.7,5.01,000.00,026.5,025.6,000.0,034.9,028.2,010.3,0000.0,0001.70,0010.70,0000.75
2024-05-24 09:20:00,SystemResetWarning,0824.7,4.99,000.00,026.5,025.6,000.0,034.9,028.3,010.2,0000.0,0001.70,0010.23,0000.75
2024-05-24 09:21:00,SystemResetWarning,0824.7,4.99,000.00,026.5,025.6,000.0,034.9,028.3,010.2,0000.0,0001.68,0008.47,0000.74
2024-05-24 09:22:00,SystemResetWarning,0824.7,5.00,000.00,026.5,025.6,000.0,034.9,028.2,010.1,0000.0,0001.63,0007.85,0000.73
2024-05-24 09:23:00,SystemResetWarning,0824.7,5.01,000.00,026.5,025.6,000.0,034.9,028.3,010.1,0000.0,0001.71,0008.32,0000.72
2024-05-24 09:24:00,SystemResetWarning,0824.7,5.00,000.00,026.4,025.6,000.0,034.9,028.2,010.1,0000.0,0001.74,0008.89,0000.72
2024-05-24 09:25:00,SystemResetWarning,0824.8,4.99,000.00,026.4,025.6,000.0,034.9,028.2,010.1,0000.0,0001.74,0009.06,0000.72
2024-05-24 09:26:00,SystemResetWarning,0824.8,5.00,000.00,026.4,025.6,000.0,034.9,028.2,010.1,0000.0,0001.75,0008.44,0000.71
2024-05-24 09:27:00,SystemResetWarning,0824.8,5.01,000.00,026.4,025.6,000.0,034.9,028.2,010.2,0000.0,0001.84,0009.00,0000.70
2024-05-24 09:28:00,SystemResetWarning,0824.9,5.00,000.00,026.4,025.6,000.0,034.9,028.2,010.2,0000.0,0001.94,0010.13,0000.69
2024-05-24 09:29:00,SystemResetWarning,0824.9,4.99,000.00,026.4,025.6,000.0,034.9,028.2,010.0,0000.0,0001.91,0010.08,0000.68
2024-05-24 09:30:00,SystemResetWarning,0824.9,4.99,000.00,026.4,025.6,000.0,034.9,028.2,009.9,0000.0,0001.87,0009.95,0000.67
2024-05-24 09:31:00,SystemResetWarning,0824.9,5.01,000.00,026.4,025.6,000.0,034.9,028.2,010.0,0000.0,0001.84,0009.68,0000.68
2024-05-24 09:32:00,SystemResetWarning,0824.9,5.00,000.00,026.4,025.6,000.0,034.9,028.2,009.9,0000.0,0001.78,0009.74,0000.68
2024-05-24 09:33:00,SystemResetWarning,0824.9,5.00,000.00,026.4,025.6,000.0,034.9,028.2,009.8,0000.0,0001.81,0010.07,0000.69
2024-05-24 09:34:00,SystemResetWarning,0824.9,4.99,000.00,026.4,025.5,000.0,034.9,028.2,009.8,0000.0,0001.77,0009.79,0000.68
2024-05-24 09:35:00,SystemResetWarning,0824.9,5.00,000.00,026.4,025.5,000.0,034.9,028.1,009.8,0000.0,0001.75,0009.38,0000.67
2024-05-24 09:36:00,SystemResetWarning,0824.9,5.00,000.00,026.4,025.5,000.0,034.9,028.1,010.0,0000.0,0001.71,0008.76,0000.66
2024-05-24 09:37:00,SystemResetWarning,0824.9,5.00,000.00,026.3,025.5,000.0,034.9,028.1,010.0,0000.0,0001.69,0008.72,0000.67
2024-05-24 09:38:00,SystemResetWarning,0824.9,5.01,000.00,026.3,025.4,000.0,034.8,028.1,010.0,0000.0,0001.63,0008.20,0000.66
2024-05-24 09:39:00,SystemResetWarning,0825.0,4.99,000.00,026.3,025.4,000.0,034.8,028.1,010.0,0000.0,0001.53,0007.93,0000.67
2024-05-24 09:40:00,SystemResetWarning,0825.0,5.00,000.00,026.3,025.4,000.0,034.8,028.1,010.0,0000.0,0001.55,0008.26,0000.68
2024-05-24 09:41:00,SystemResetWarning,0824.9,4.99,000.00,026.3,025.4,000.0,034.8,028.1,010.0,0000.0,0001.53,0008.14,0000.67
2024-05-24 09:42:00,SystemResetWarning,0824.9,4.99,000.00,026.3,025.4,000.0,034.8,028.1,010.1,0000.0,0001.51,0007.71,0000.65
2024-05-24 09:43:00,SystemResetWarning,0825.0,5.00,000.00,026.3,025.5,000.0,034.8,028.1,010.0,0000.0,0001.52,0007.47,0000.65
2024-05-24 09:44:00,SystemResetWarning,0825.1,5.00,000.00,026.3,025.5,000.0,034.8,028.1,010.0,0000.0,0001.49,0006.96,0000.65
2024-05-24 09:45:00,SystemResetWarning,0825.1,5.00,000.00,026.3,025.5,000.0,034.7,028.1,010.1,0000.0,0001.53,0007.31,0000.64
2024-05-24 09:46:00,SystemResetWarning,0825.1,5.00,000.00,026.3,025.5,000.0,034.7,028.1,010.1,0000.0,0001.55,0008.73,0000.64
2024-05-24 09:47:00,SystemResetWarning,0825.1,5.00,000.00,026.3,025.5,000.0,034.7,028.1,010.2,0000.0,0001.59,0009.79,0000.65
2024-05-24 09:48:00,SystemResetWarning,0825.1,5.00,000.00,026.3,025.5,000.0,034.7,028.1,010.2,0000.0,0001.62,0009.95,0000.65
2024-05-24 09:49:00,SystemResetWarning,0825.1,5.00,000.00,026.3,025.5,000.0,034.7,028.1,010.1,0000.0,0001.72,0010.21,0000.65
2024-05-24 09:50:00,SystemResetWarning,0825.1,5.00,000.00,026.3,025.5,000.0,034.7,028.1,010.1,0000.0,0001.74,0010.03,0000.65
2024-05-24 09:51:00,SystemResetWarning,0825.1,5.00,000.00,026.3,025.5,000.0,034.7,028.1,010.1,0000.0,0001.71,0010.00,0000.65
2024-05-24 09:52:00,SystemResetWarning,0825.2,5.00,000.00,026.3,025.5,000.0,034.7,028.1,010.1,0000.0,0001.75,0010.22,0000.65
2024-05-24 09:53:00,SystemResetWarning,0825.1,5.00,000.00,026.3,025.5,000.0,034.7,028.1,010.1,0000.0,0001.77,0010.88,0000.66
2024-05-24 09:54:00,SystemResetWarning,0825.1,5.00,000.00,026.3,025.5,000.0,034.7,028.1,010.1,0000.0,0001.79,0011.10,0000.67
2024-05-24 09:55:00,SystemResetWarning,0825.1,4.99,000.00,026.3,025.5,000.0,034.7,028.1,010.1,0000.0,0001.82,0011.20,0000.68
2024-05-24 09:56:00,SystemResetWarning,0825.1,5.00,000.00,026.3,025.5,000.0,034.7,028.1,010.1,0000.0,0001.77,0011.14,0000.68
2024-05-24 09:57:00,SystemResetWarning,0825.1,5.02,000.00,026.3,025.5,000.0,034.7,028.1,010.1,0000.0,0001.74,0009.54,0000.69
2024-05-24 09:58:00,SystemResetWarning,0825.1,5.00,000.00,026.3,025.5,000.0,034.7,028.1,010.1,0000.0,0001.72,0008.71,0000.69
2024-05-24 09:59:00,SystemResetWarning,0825.1,4.99,000.00,026.3,025.5,000.0,034.6,028.0,010.1,0000.0,0001.68,0008.85,0000.69
